User: anonymous   Login
Location: Les Salelles
(44.4192°N, 4.1044°E)
Time: 15:56:02
(UTC+00:00)
Language:

Cosmos 158 Rocket - Orbit

View from above orbital plane
View from above orbital plane
View from above satellite
View from above satellite

Ground track
Ground track

The orbit data is extracted from the following two-line orbital elements,

1  2802U 67045B   21108.11489587 -.00000011  00000-0  46639-5 0  9995
2  2802  74.0115  78.4529 0066084 157.0952 203.3177 14.43802135831152
Epoch (UTC): 18 April 2021 02:45:27
Eccentricity: 0.0066084
inclination: 74.0115°
perigee height: 699 km
apogee height: 793 km
right ascension of ascending node: 78.4529°
argument of perigee: 157.0952°
revolutions per day: 14.43802135
mean anomaly at epoch: 203.3177°
orbit number at epoch: 83115

The dashed part of the orbit path shows where the satellite is in the earth's shadow,  

DLR